TimeEST,TemperatureF,Dew PointF,Humidity,Sea Level PressureIn,VisibilityMPH,Wind Direction,Wind SpeedMPH,Gust SpeedMPH,PrecipitationIn,Events,Conditions,WindDirDegrees,DateUTC
12:10 AM,30.0,28.9,96,30.01,2.0,NE,16.1,25.3,0.02,Snow,Light Snow,50,2013-03-07 05:10:00
12:26 AM,30.0,28.9,96,30.01,6.0,NE,13.8,25.3,0.02,,Overcast,50,2013-03-07 05:26:00
12:35 AM,30.0,28.0,92,30.01,6.0,NE,13.8,33.4,0.02,Rain,Light Freezing Rain,50,2013-03-07 05:35:00
12:40 AM,30.0,28.0,92,30.00,4.0,NE,17.3,33.4,0.02,Snow,Light Snow,40,2013-03-07 05:40:00
12:54 AM,28.9,28.0,96,30.05,3.0,NE,15.0,26.5,0.02,Snow,Light Snow,40,2013-03-07 05:54:00
1:54 AM,28.9,27.0,92,30.02,8.0,NE,19.6,31.1,0.00,,Overcast,40,2013-03-07 06:54:00
2:54 AM,28.0,27.0,96,30.01,9.0,NE,18.4,35.7,0.00,,Overcast,40,2013-03-07 07:54:00
3:28 AM,28.0,26.1,92,29.97,1.8,NE,18.4,29.9,0.00,Snow,Light Snow,40,2013-03-07 08:28:00
3:52 AM,28.4,26.6,93,29.97,2.0,NNE,18.4,25.3,0.00,Snow,Light Snow,30,2013-03-07 08:52:00
3:54 AM,28.0,26.1,92,30.01,2.0,NE,17.3,25.3,0.00,Snow,Light Snow,40,2013-03-07 08:54:00
4:03 AM,28.0,26.1,92,29.97,1.5,NE,20.7,32.2,0.00,Snow,Light Snow,40,2013-03-07 09:03:00
4:39 AM,28.0,26.1,92,29.97,0.8,NNE,18.4,31.1,0.01,Snow,Light Snow,20,2013-03-07 09:39:00
4:54 AM,28.0,26.1,92,30.00,0.5,NNE,16.1,28.8,0.01,Fog-Snow,Snow,30,2013-03-07 09:54:00
5:16 AM,28.0,26.1,92,29.96,1.5,NNE,21.9,28.8,0.02,Snow,Light Snow,20,2013-03-07 10:16:00
5:39 AM,28.0,25.0,88,29.97,3.0,NNE,15.0,33.4,0.02,Snow,Light Snow,30,2013-03-07 10:39:00
5:54 AM,28.0,25.0,88,30.02,3.0,NNE,20.7,29.9,0.02,Snow,Light Snow,30,2013-03-07 10:54:00
6:10 AM,28.0,25.0,88,29.98,2.5,NE,17.3,29.9,0.01,Snow,Light Snow,40,2013-03-07 11:10:00
6:14 AM,27.0,25.0,92,29.98,1.8,NNE,19.6,29.9,0.01,Snow,Light Snow,20,2013-03-07 11:14:00
6:33 AM,27.0,25.0,92,29.99,0.5,NNE,16.1,32.2,0.01,Fog-Snow,Snow,30,2013-03-07 11:33:00
6:54 AM,27.0,25.0,92,30.03,1.0,NNE,20.7,33.4,0.02,Snow,Light Snow,30,2013-03-07 11:54:00
7:18 AM,27.0,25.0,92,29.99,0.8,NNE,20.7,31.1,0.00,Snow,Light Snow,30,2013-03-07 12:18:00
7:52 AM,26.6,24.8,93,29.99,0.5,NNE,17.3,29.9,0.02,Fog-Snow,Snow,30,2013-03-07 12:52:00
7:54 AM,27.0,25.0,92,30.03,0.5,NNE,17.3,29.9,0.02,Fog-Snow,Snow,30,2013-03-07 12:54:00
8:04 AM,27.0,25.0,92,29.99,0.5,NNE,18.4,31.1,0.00,Fog-Snow,Snow,30,2013-03-07 13:04:00
8:11 AM,27.0,25.0,92,29.99,0.8,NNE,17.3,31.1,0.00,Snow,Light Snow,30,2013-03-07 13:11:00
8:19 AM,27.0,25.0,92,29.99,1.2,NNE,18.4,28.8,0.00,Snow,Light Snow,20,2013-03-07 13:19:00
8:31 AM,28.0,25.0,88,29.98,3.0,NNE,17.3,28.8,0.00,Snow,Light Snow,20,2013-03-07 13:31:00
8:39 AM,28.0,24.1,85,29.98,5.0,NNE,15.0,33.4,0.01,Snow,Light Snow,30,2013-03-07 13:39:00
8:54 AM,28.9,24.1,82,30.02,4.0,NNE,21.9,31.1,0.01,Snow,Light Snow,20,2013-03-07 13:54:00
9:41 AM,28.9,24.1,82,29.97,8.0,NNE,21.9,36.8,0.00,Snow,Light Snow,30,2013-03-07 14:41:00
9:54 AM,28.9,24.1,82,30.01,3.0,NNE,19.6,34.5,0.00,Snow,Light Snow,30,2013-03-07 14:54:00
10:08 AM,30.0,25.0,82,29.97,2.0,NNE,18.4,32.2,0.00,Snow,Light Snow,30,2013-03-07 15:08:00
10:36 AM,30.0,25.0,82,29.97,5.0,NNE,16.1,33.4,0.00,Snow,Light Snow,30,2013-03-07 15:36:00
10:54 AM,30.0,25.0,82,30.02,3.0,NNE,19.6,28.8,0.00,Snow,Light Snow,30,2013-03-07 15:54:00
11:06 AM,30.0,26.1,85,29.99,2.5,NE,13.8,26.5,0.00,Snow,Light Snow,40,2013-03-07 16:06:00
11:37 AM,30.0,26.1,85,29.99,1.5,NNE,13.8,25.3,0.00,Snow,Light Snow,30,2013-03-07 16:37:00
11:54 AM,30.0,26.1,85,30.03,1.2,NNE,15.0,27.6,0.00,Snow,Light Snow,30,2013-03-07 16:54:00
12:08 PM,30.0,27.0,88,29.99,0.8,NNE,17.3,27.6,0.01,Snow,Light Snow,20,2013-03-07 17:08:00
12:54 PM,30.0,27.0,88,30.02,0.8,NE,17.3,25.3,0.01,Snow,Light Snow,40,2013-03-07 17:54:00
1:08 PM,30.9,26.1,82,29.98,0.8,NNE,12.7,33.4,0.00,Snow,Light Snow,20,2013-03-07 18:08:00
1:49 PM,30.2,26.6,86,29.98,0.8,NNE,13.8,25.3,0.01,Snow,Light Snow,20,2013-03-07 18:49:00
1:54 PM,30.0,27.0,88,30.02,0.8,NNE,12.7,29.9,0.01,Snow,Light Snow,30,2013-03-07 18:54:00
2:34 PM,30.9,27.0,85,29.98,5.0,NNE,16.1,27.6,0.01,Snow,Light Snow,30,2013-03-07 19:34:00
2:54 PM,30.9,27.0,85,30.02,3.0,NNE,18.4,26.5,0.01,Snow,Light Snow,30,2013-03-07 19:54:00
3:01 PM,30.9,27.0,85,29.98,1.8,NNE,13.8,26.5,0.00,Snow,Light Snow,30,2013-03-07 20:01:00
3:38 PM,30.0,27.0,88,29.98,1.2,North,11.5,27.6,0.01,Snow,Light Snow,10,2013-03-07 20:38:00
3:54 PM,30.0,27.0,88,30.03,1.0,NNE,12.7,25.3,0.01,Snow,Light Snow,20,2013-03-07 20:54:00
4:24 PM,30.0,27.0,88,29.99,0.8,NNE,16.1,24.2,0.01,Snow,Light Snow,20,2013-03-07 21:24:00
4:54 PM,30.0,27.0,88,30.03,0.5,North,16.1,26.5,0.03,Fog-Snow,Snow,10,2013-03-07 21:54:00
5:05 PM,30.0,27.0,88,29.99,0.5,NNE,15.0,24.2,0.00,Fog-Snow,Snow,20,2013-03-07 22:05:00
5:54 PM,28.9,27.0,92,30.04,0.5,North,13.8,23.0,0.02,Snow,Light Snow,10,2013-03-07 22:54:00
6:54 PM,28.0,26.1,92,30.04,0.8,North,17.3,27.6,0.04,Snow,Light Snow,10,2013-03-07 23:54:00
7:01 PM,28.0,26.1,92,29.99,1.0,NNE,15.0,25.3,0.00,Snow,Light Snow,20,2013-03-08 00:01:00
7:27 PM,28.9,26.1,89,29.99,0.8,NNE,15.0,28.8,0.01,Snow,Light Snow,20,2013-03-08 00:27:00
7:37 PM,28.9,26.1,89,29.99,1.0,NNE,20.7,31.1,0.01,Snow,Light Snow,20,2013-03-08 00:37:00
7:54 PM,28.9,26.1,89,30.04,1.0,NNE,13.8,27.6,0.03,Snow,Light Snow,20,2013-03-08 00:54:00
8:03 PM,28.9,26.1,89,29.99,1.0,North,16.1,28.8,0.00,Snow,Light Snow,10,2013-03-08 01:03:00
8:11 PM,28.0,26.1,92,29.98,0.8,NNE,17.3,31.1,0.00,Snow,Light Snow,20,2013-03-08 01:11:00
8:19 PM,28.0,27.0,96,29.99,0.8,NNE,17.3,27.6,0.01,,Overcast,20,2013-03-08 01:19:00
8:54 PM,28.0,26.1,92,30.02,0.8,North,19.6,26.5,0.02,Snow,Light Snow,10,2013-03-08 01:54:00
9:22 PM,28.0,26.1,92,29.97,1.0,North,19.6,33.4,0.02,Snow,Light Snow,10,2013-03-08 02:22:00
9:52 PM,28.4,26.6,93,29.97,2.5,NNE,17.3,28.8,0.03,Snow,Light Snow,20,2013-03-08 02:52:00
9:54 PM,28.0,26.1,92,30.01,2.5,NNE,16.1,28.8,0.03,Snow,Light Snow,20,2013-03-08 02:54:00
10:11 PM,28.0,26.1,92,29.96,1.8,North,16.1,29.9,0.01,Snow,Light Snow,10,2013-03-08 03:11:00
10:40 PM,28.0,25.0,88,29.96,1.0,NNE,17.3,26.5,0.03,Snow,Light Snow,20,2013-03-08 03:40:00
10:47 PM,28.0,26.1,92,29.96,0.5,NNE,15.0,29.9,0.03,Fog-Snow,Snow,20,2013-03-08 03:47:00
10:54 PM,28.0,26.1,92,30.00,0.5,North,20.7,29.9,0.05,Fog-Snow,Snow,10,2013-03-08 03:54:00
11:54 PM,28.0,26.1,92,29.99,1.0,North,17.3,29.9,0.05,Snow,Light Snow,10,2013-03-08 04:54:00